Weather History for KPIL - January, 2014

Change the Weather History Date:

Thursday, January 30, 2014

  Actual Average Record
Temperature  
Mean Temperature 58 °F -  
Max Temperature 69 °F - - ()
Min Temperature 46 °F - - ()
Degree Days  
Heating Degree Days 8    
Growing Degree Days 8 (Base 50)    
Moisture  
Dew Point 50 °F    
Average Humidity 75    
Maximum Humidity 90    
Minimum Humidity 60    
Precipitation  
Precipitation 0.00 in - - ()
Sea Level Pressure  
Sea Level Pressure 30.08 in    
Wind  
Wind Speed 8 mph (SSW)    
Max Wind Speed 20 mph    
Max Gust Speed 26 mph    
Visibility 10 miles    
Events      
T = Trace of Precipitation, MM = Missing Value Source: NWS Daily Summary

Daily Weather History Graph

Daily Weather History Graph

Search for Another Location

Airport or City:

Trip Planner

Search our weather history database for the weather conditions in past years. The results will help you decide how hot, cold, wet, or windy it might be!

Date:

Astronomy

Jan. 30, 2014 Rise Set
Actual Time 7:14 AM CST 6:11 PM CST
Civil Twilight 6:50 AM CST 6:35 PM CST
Nautical Twilight 6:22 AM CST 7:03 PM CST
Astronomical Twilight 5:55 AM CST 7:30 PM CST
Moon 6:45 AM CST (1/30) 6:18 PM CST (1/30)
Length of Visible Light 11h 44m
Length of Day
10h 56m
Waning Crescent, 0% of the Moon is Illuminated
Jan 30
Waning Crescent
Jan 30
New
Feb 6
First Quarter
Feb 14
Full
Feb 22
Last Quarter

Hourly Weather History & Observations

Time (CST) Temp. Windchill Dew Point Humidity Pressure Visibility Wind Dir Wind Speed Gust Speed Precip Events Conditions
12:53 AM 46.0 °F 42.5 °F 39.9 °F 79% 30.25 in 10.0 mi WNW 6.9 mph - N/A   Overcast
1:53 AM 46.0 °F 42.5 °F 39.9 °F 79% 30.23 in 10.0 mi WNW 6.9 mph - N/A   Overcast
2:53 AM 46.0 °F 43.9 °F 39.9 °F 79% 30.21 in 10.0 mi WNW 4.6 mph - N/A   Overcast
3:39 AM 46.4 °F 42.9 °F 39.2 °F 76% 30.20 in 10.0 mi NW 6.9 mph - N/A   Overcast
3:53 AM 46.0 °F 42.5 °F 39.9 °F 79% 30.19 in 10.0 mi WNW 6.9 mph - N/A   Overcast
4:25 AM 46.4 °F 44.3 °F 39.2 °F 76% 30.18 in 10.0 mi WNW 4.6 mph - N/A   Overcast
4:53 AM 46.0 °F 44.8 °F 39.9 °F 79% 30.17 in 10.0 mi WNW 3.5 mph - N/A   Overcast
5:53 AM 46.0 °F 44.8 °F 39.9 °F 79% 30.16 in 10.0 mi West 3.5 mph - N/A   Overcast
6:53 AM 46.9 °F - 39.9 °F 77% 30.16 in 10.0 mi Calm Calm - N/A   Overcast
7:53 AM 46.9 °F - 39.9 °F 77% 30.16 in 10.0 mi West 5.8 mph - N/A   Overcast
8:53 AM 48.9 °F - 39.0 °F 69% 30.18 in 10.0 mi WNW 5.8 mph - N/A   Scattered Clouds
9:53 AM 55.9 °F - 44.1 °F 64% 30.16 in 10.0 mi Calm Calm - N/A   Clear
10:53 AM 62.1 °F - 50.0 °F 65% 30.15 in 10.0 mi South 6.9 mph - N/A   Clear
11:53 AM 66.0 °F - 53.1 °F 63% 30.12 in 10.0 mi South 8.1 mph - N/A   Clear
12:53 PM 68.0 °F - 55.0 °F 63% 30.08 in 10.0 mi South 12.7 mph - N/A   Partly Cloudy
1:53 PM 69.1 °F - 55.9 °F 63% 30.05 in 10.0 mi South 13.8 mph 23.0 mph N/A   Scattered Clouds
2:07 PM 69.8 °F - 57.2 °F 64% 30.04 in 10.0 mi South 13.8 mph 20.7 mph N/A   Mostly Cloudy
2:53 PM 69.1 °F - 55.9 °F 63% 30.01 in 10.0 mi South 16.1 mph 21.9 mph N/A   Mostly Cloudy
3:12 PM 69.8 °F - 55.4 °F 60% 30.01 in 10.0 mi South 17.3 mph 24.2 mph N/A   Scattered Clouds
3:23 PM 69.8 °F - 55.4 °F 60% 30.00 in 10.0 mi SSE 18.4 mph - N/A   Mostly Cloudy
3:32 PM 69.8 °F - 57.2 °F 64% 30.00 in 10.0 mi South 16.1 mph - N/A   Scattered Clouds
3:53 PM 69.1 °F - 55.9 °F 63% 29.99 in 10.0 mi South 17.3 mph 26.5 mph N/A   Partly Cloudy
4:53 PM 64.9 °F - 55.9 °F 73% 30.00 in 10.0 mi SSE 19.6 mph - N/A   Clear
5:27 PM 62.6 °F - 55.4 °F 77% 29.99 in 10.0 mi SSE 18.4 mph 24.2 mph N/A   Mostly Cloudy
5:53 PM 63.0 °F - 55.9 °F 78% 29.99 in 10.0 mi South 12.7 mph 21.9 mph N/A   Overcast
6:12 PM 62.6 °F - 55.4 °F 77% 29.98 in 10.0 mi SSE 10.4 mph - N/A   Scattered Clouds
6:53 PM 60.1 °F - 55.9 °F 86% 29.98 in 10.0 mi South 9.2 mph - N/A   Clear
7:16 PM 60.8 °F - 55.4 °F 82% 29.99 in 10.0 mi South 8.1 mph - N/A   Mostly Cloudy
7:53 PM 59.0 °F - 55.9 °F 90% 29.99 in 10.0 mi South 6.9 mph - N/A   Scattered Clouds
8:53 PM 57.9 °F - 55.0 °F 90% 29.98 in 10.0 mi SSE 8.1 mph - N/A   Clear
9:53 PM 57.9 °F - 55.0 °F 90% 29.98 in 9.0 mi South 6.9 mph - N/A   Clear
10:53 PM 60.1 °F - 57.0 °F 90% 29.97 in 10.0 mi South 10.4 mph - N/A   Clear
11:53 PM 60.1 °F - 57.0 °F 90% 29.96 in 9.0 mi South 9.2 mph - N/A   Scattered Clouds